| time (UTC) | temp F | wind direction | speed MPH | gust MPH | rain 1hr in | rain 24hr in | rain mn in | humidity % | barometer mb |
| 20260508045748 | 48 | 237 | 0.0 | 1.0 | 0.00 | 0.00 | 0.00 | 69 | |
| 20260508045246 | 48 | 274 | 0.0 | 0.0 | 0.00 | 0.00 | 0.00 | 68 | |
| 20260508044743 | 49 | 241 | 0.0 | 1.0 | 0.00 | 0.00 | 0.00 | 68 | |
| 20260508044240 | 49 | 249 | 0.0 | 0.0 | 0.00 | 0.00 | 0.00 | 67 | |
| 20260508043736 | 49 | 248 | 0.0 | 0.0 | 0.00 | 0.00 | 0.00 | 66 | |
| 20260508043233 | 49 | 258 | 1.0 | 1.0 | 0.00 | 0.00 | 0.00 | 66 | |
| 20260508042730 | 50 | 248 | 0.0 | 1.0 | 0.00 | 0.00 | 0.00 | 66 | |
| 20260508042227 | 50 | 268 | 0.0 | 0.0 | 0.00 | 0.00 | 0.00 | 66 | |
| 20260508041723 | 50 | 239 | 0.0 | 0.0 | 0.00 | 0.00 | 0.00 | 65 | |
| 20260508041220 | 50 | 241 | 0.0 | 1.0 | 0.00 | 0.00 | 0.00 | 64 | |
| 20260508040717 | 50 | 250 | 0.0 | 1.0 | 0.00 | 0.00 | 0.00 | 64 | |
| 20260508040214 | 50 | 255 | 0.0 | 1.0 | 0.00 | 0.00 | 0.00 | 63 | |
| 20260508035711 | 51 | 204 | 0.0 | 2.0 | 0.00 | 0.00 | 0.00 | 63 | |
| 20260508035209 | 51 | 235 | 0.0 | 1.0 | 0.00 | 0.00 | 0.00 | 63 | |
| 20260508034705 | 51 | 223 | 0.0 | 1.0 | 0.00 | 0.00 | 0.00 | 62 | |
| 20260508034203 | 51 | 242 | 0.0 | 1.0 | 0.00 | 0.00 | 0.00 | 61 | |
| 20260508033659 | 51 | 255 | 0.0 | 1.0 | 0.00 | 0.00 | 0.00 | 60 | |
| 20260508033158 | 51 | 227 | 1.0 | 1.0 | 0.00 | 0.00 | 0.00 | 61 | |
| 20260508032655 | 51 | 241 | 0.0 | 1.0 | 0.00 | 0.00 | 0.00 | 60 | |
| 20260508032152 | 51 | 240 | 0.0 | 1.0 | 0.00 | 0.00 | 0.00 | 59 | |
| 20260508031649 | 51 | 261 | 0.0 | 0.0 | 0.00 | 0.00 | 0.00 | 58 | |
| 20260508031145 | 51 | 303 | 1.0 | 2.0 | 0.00 | 0.00 | 0.00 | 58 | |
| 20260508030641 | 52 | 292 | 2.0 | 5.0 | 0.00 | 0.00 | 0.00 | 57 | |
| 20260508030139 | 52 | 254 | 1.0 | 3.0 | 0.00 | 0.00 | 0.00 | 57 | |
| 20260508025635 | 52 | 262 | 1.0 | 3.0 | 0.00 | 0.00 | 0.00 | 56 | |
| 20260508025133 | 52 | 271 | 2.0 | 5.0 | 0.00 | 0.00 | 0.00 | 57 | |
| 20260508024628 | 52 | 270 | 1.0 | 6.0 | 0.00 | 0.00 | 0.00 | 55 | |
| 20260508024126 | 52 | 277 | 0.0 | 5.0 | 0.00 | 0.00 | 0.00 | 53 | |
| 20260508023622 | 53 | 272 | 1.0 | 3.0 | 0.00 | 0.00 | 0.00 | 53 | |
| 20260508023120 | 53 | 260 | 1.0 | 1.0 | 0.00 | 0.00 | 0.00 | 50 | |
| 20260508022615 | 53 | 257 | 0.0 | 1.0 | 0.00 | 0.00 | 0.00 | 49 | |
| 20260508022113 | 53 | 242 | 0.0 | 3.0 | 0.00 | 0.00 | 0.00 | 48 | |
| 20260508021608 | 53 | 277 | 1.0 | 2.0 | 0.00 | 0.00 | 0.00 | 48 | |
| 20260508021104 | 53 | 297 | 1.0 | 2.0 | 0.00 | 0.00 | 0.00 | 47 | |
| 20260508020602 | 53 | 271 | 1.0 | 2.0 | 0.00 | 0.00 | 0.00 | 47 | |
| 20260508020059 | 53 | 303 | 3.0 | 3.0 | 0.00 | 0.00 | 0.00 | 46 | |
| 20260508015557 | 53 | 285 | 2.0 | 2.0 | 0.00 | 0.00 | 0.00 | 46 | |
| 20260508015053 | 53 | 272 | 2.0 | 2.0 | 0.00 | 0.00 | 0.00 | 46 | |
| 20260508014550 | 53 | 261 | 0.0 | 5.0 | 0.00 | 0.00 | 0.00 | 46 | |
| 20260508014046 | 53 | 254 | 1.0 | 1.0 | 0.00 | 0.00 | 0.00 | 47 | |
| 20260508013542 | 53 | 248 | 0.0 | 1.0 | 0.00 | 0.00 | 0.00 | 46 | |
| 20260508013039 | 52 | 258 | 1.0 | 1.0 | 0.00 | 0.00 | 0.00 | 46 | |
| 20260508012537 | 52 | 254 | 0.0 | 1.0 | 0.00 | 0.00 | 0.00 | 47 | |
| 20260508012034 | 52 | 264 | 0.0 | 1.0 | 0.00 | 0.00 | 0.00 | 47 | |
| 20260508011532 | 52 | 264 | 0.0 | 1.0 | 0.00 | 0.00 | 0.00 | 46 | |
| 20260508011029 | 52 | 259 | 0.0 | 1.0 | 0.00 | 0.00 | 0.00 | 46 | |
| 20260508010526 | 52 | 254 | 0.0 | 1.0 | 0.00 | 0.00 | 0.00 | 45 | |
| 20260508010024 | 53 | 257 | 0.0 | 1.0 | 0.00 | 0.00 | 0.00 | 45 | |
| 20260508005520 | 53 | 258 | 0.0 | 1.0 | 0.00 | 0.00 | 0.00 | 44 | |
| 20260508005017 | 53 | 261 | 0.0 | 1.0 | 0.00 | 0.00 | 0.00 | 44 | |
| 20260508004513 | 53 | 257 | 0.0 | 2.0 | 0.00 | 0.00 | 0.00 | 44 | |
| 20260508004010 | 54 | 252 | 1.0 | 2.0 | 0.00 | 0.00 | 0.00 | 42 | |
| 20260508003506 | 54 | 265 | 1.0 | 3.0 | 0.00 | 0.00 | 0.00 | 43 | |
| 20260508003005 | 54 | 257 | 0.0 | 2.0 | 0.00 | 0.00 | 0.00 | 43 | |
| 20260508002459 | 54 | 252 | 0.0 | 2.0 | 0.00 | 0.00 | 0.00 | 43 | |
| 20260508001956 | 54 | 248 | 1.0 | 3.0 | 0.00 | 0.00 | 0.00 | 42 | |
| 20260508001453 | 54 | 285 | 1.0 | 1.0 | 0.00 | 0.00 | 0.00 | 43 | |
| 20260508000949 | 55 | 243 | 0.0 | 0.0 | 0.00 | 0.00 | 0.00 | 42 | |
| 20260508000444 | 55 | 251 | 2.0 | 3.0 | 0.00 | 0.00 | 0.00 | 42 | |
| 20260507235942 | 55 | 261 | 2.0 | 6.0 | 0.00 | 0.00 | 0.00 | 41 | |
| 20260507235438 | 55 | 262 | 3.0 | 6.0 | 0.00 | 0.00 | 0.00 | 41 | |
| 20260507234936 | 55 | 263 | 1.0 | 3.0 | 0.00 | 0.00 | 0.00 | 41 | |
| 20260507234433 | 55 | 239 | 0.0 | 2.0 | 0.00 | 0.00 | 0.00 | 42 | |
| 20260507233929 | 55 | 254 | 1.0 | 1.0 | 0.00 | 0.00 | 0.00 | 41 | |
| 20260507233426 | 55 | 264 | 1.0 | 7.0 | 0.00 | 0.00 | 0.00 | 41 | |
| 20260507232925 | 55 | 308 | 1.0 | 2.0 | 0.00 | 0.00 | 0.00 | 41 | |
| 20260507232421 | 56 | 257 | 1.0 | 1.0 | 0.00 | 0.00 | 0.00 | 40 | |
| 20260507231918 | 56 | 295 | 3.0 | 6.0 | 0.00 | 0.00 | 0.00 | 39 | |
| 20260507231414 | 57 | 269 | 1.0 | 5.0 | 0.00 | 0.00 | 0.00 | 38 | |
| 20260507230911 | 56 | 316 | 3.0 | 6.0 | 0.00 | 0.00 | 0.00 | 39 | |
| 20260507230409 | 56 | 273 | 2.0 | 5.0 | 0.00 | 0.00 | 0.00 | 38 | |
| 20260507225908 | 56 | 309 | 2.0 | 3.0 | 0.00 | 0.00 | 0.00 | 38 | |
| 20260507225405 | 56 | 281 | 2.0 | 6.0 | 0.00 | 0.00 | 0.00 | 38 | |
| 20260507224901 | 57 | 265 | 2.0 | 3.0 | 0.00 | 0.00 | 0.00 | 39 | |
| 20260507224357 | 56 | 291 | 3.0 | 7.0 | 0.00 | 0.00 | 0.00 | 37 | |
| 20260507223854 | 57 | 293 | 1.0 | 7.0 | 0.00 | 0.00 | 0.00 | 38 | |
| 20260507223350 | 57 | 238 | 2.0 | 5.0 | 0.00 | 0.00 | 0.00 | 38 | |
| 20260507222848 | 57 | 271 | 2.0 | 7.0 | 0.00 | 0.00 | 0.00 | 38 | |
| 20260507222344 | 57 | 341 | 9.0 | 13.0 | 0.00 | 0.00 | 0.00 | 37 | |
| 20260507221841 | 57 | 247 | 5.0 | 7.0 | 0.00 | 0.00 | 0.00 | 37 | |
| 20260507221337 | 57 | 305 | 3.0 | 9.0 | 0.00 | 0.00 | 0.00 | 39 | |
| 20260507220833 | 57 | 272 | 4.0 | 8.0 | 0.00 | 0.00 | 0.00 | 37 | |
| 20260507220332 | 58 | 257 | 3.0 | 6.0 | 0.00 | 0.00 | 0.00 | 36 | |
| 20260507215827 | 57 | 288 | 3.0 | 6.0 | 0.00 | 0.00 | 0.00 | 36 | |
| 20260507215324 | 58 | 322 | 3.0 | 6.0 | 0.00 | 0.00 | 0.00 | 37 | |
| 20260507214821 | 58 | 285 | 3.0 | 9.0 | 0.00 | 0.00 | 0.00 | 36 | |
| 20260507214319 | 58 | 330 | 4.0 | 7.0 | 0.00 | 0.00 | 0.00 | 36 | |
| 20260507213814 | 58 | 278 | 5.0 | 6.0 | 0.00 | 0.00 | 0.00 | 36 | |
| 20260507213312 | 58 | 273 | 3.0 | 6.0 | 0.00 | 0.00 | 0.00 | 36 | |
| 20260507212808 | 58 | 293 | 3.0 | 5.0 | 0.00 | 0.00 | 0.00 | 37 | |
| 20260507212307 | 58 | 0 | 7.0 | 10.0 | 0.00 | 0.00 | 0.00 | 35 | |
| 20260507211801 | 58 | 348 | 3.0 | 7.0 | 0.00 | 0.00 | 0.00 | 36 | |
| 20260507211258 | 57 | 254 | 3.0 | 8.0 | 0.00 | 0.00 | 0.00 | 36 | |
| 20260507210754 | 56 | 281 | 2.0 | 10.0 | 0.00 | 0.00 | 0.00 | 37 | |
| 20260507210251 | 58 | 305 | 5.0 | 7.0 | 0.00 | 0.00 | 0.00 | 36 | |
| 20260507205748 | 59 | 309 | 5.0 | 8.0 | 0.00 | 0.00 | 0.00 | 35 | |
| 20260507205245 | 57 | 335 | 3.0 | 7.0 | 0.00 | 0.00 | 0.00 | 36 | |
| 20260507204741 | 57 | 179 | 5.0 | 10.0 | 0.00 | 0.00 | 0.00 | 36 | |
| 20260507204239 | 59 | 272 | 4.0 | 7.0 | 0.00 | 0.00 | 0.00 | 35 | |
| 20260507203736 | 59 | 337 | 4.0 | 11.0 | 0.00 | 0.00 | 0.00 | 35 | |
| 20260507203233 | 59 | 278 | 4.0 | 11.0 | 0.00 | 0.00 | 0.00 | 35 | |
| 20260507202729 | 59 | 266 | 2.0 | 6.0 | 0.00 | 0.00 | 0.00 | 36 | |
| 20260507202220 | 58 | 261 | 4.0 | 9.0 | 0.00 | 0.00 | 0.00 | 36 | |
| 20260507201715 | 59 | 232 | 2.0 | 6.0 | 0.00 | 0.00 | 0.00 | 37 | |
| 20260507201212 | 58 | 293 | 4.0 | 5.0 | 0.00 | 0.00 | 0.00 | 36 | |
| 20260507200708 | 57 | 256 | 6.0 | 8.0 | 0.00 | 0.00 | 0.00 | 37 | |
| 20260507200204 | 56 | 276 | 2.0 | 6.0 | 0.00 | 0.00 | 0.00 | 39 | |
| 20260507195700 | 56 | 306 | 3.0 | 6.0 | 0.00 | 0.00 | 0.00 | 38 | |
| 20260507195152 | 56 | 278 | 3.0 | 7.0 | 0.00 | 0.00 | 0.00 | 38 | |
| 20260507194649 | 56 | 269 | 4.0 | 7.0 | 0.00 | 0.00 | 0.00 | 38 | |
| 20260507194145 | 57 | 240 | 2.0 | 5.0 | 0.00 | 0.00 | 0.00 | 38 | |
| 20260507193642 | 57 | 241 | 2.0 | 6.0 | 0.00 | 0.00 | 0.00 | 37 | |
| 20260507193139 | 59 | 326 | 7.0 | 10.0 | 0.00 | 0.00 | 0.00 | 35 | |
| 20260507192635 | 57 | 231 | 3.0 | 7.0 | 0.00 | 0.00 | 0.00 | 37 | |
| 20260507192132 | 60 | 232 | 7.0 | 8.0 | 0.00 | 0.00 | 0.00 | 33 | |
| 20260507191627 | 59 | 332 | 5.0 | 9.0 | 0.00 | 0.00 | 0.00 | 36 | |
| 20260507191125 | 60 | 228 | 4.0 | 10.0 | 0.00 | 0.00 | 0.00 | 34 | |
| 20260507190622 | 60 | 352 | 6.0 | 7.0 | 0.00 | 0.00 | 0.00 | 34 | |
| 20260507190120 | 60 | 171 | 6.0 | 11.0 | 0.00 | 0.00 | 0.00 | 32 | |
| 20260507185619 | 60 | 339 | 5.0 | 8.0 | 0.00 | 0.00 | 0.00 | 36 | |
| 20260507185115 | 60 | 306 | 4.0 | 7.0 | 0.00 | 0.00 | 0.00 | 38 | |
| 20260507184613 | 60 | 132 | 3.0 | 10.0 | 0.00 | 0.00 | 0.00 | 37 | |
| 20260507184111 | 58 | 259 | 2.0 | 14.0 | 0.00 | 0.00 | 0.00 | 40 | |
| 20260507183607 | 58 | 351 | 5.0 | 7.0 | 0.00 | 0.00 | 0.00 | 37 | |
| 20260507183104 | 57 | 267 | 2.0 | 10.0 | 0.00 | 0.00 | 0.00 | 41 | |
| 20260507182600 | 57 | 260 | 2.0 | 9.0 | 0.00 | 0.00 | 0.00 | 42 | |
| 20260507182055 | 57 | 234 | 2.0 | 6.0 | 0.00 | 0.00 | 0.00 | 40 | |
| 20260507181552 | 57 | 295 | 3.0 | 7.0 | 0.00 | 0.00 | 0.00 | 39 | |
| 20260507181048 | 57 | 348 | 4.0 | 10.0 | 0.00 | 0.00 | 0.00 | 39 | |
| 20260507180545 | 56 | 314 | 5.0 | 9.0 | 0.00 | 0.00 | 0.00 | 41 | |
| 20260507180042 | 56 | 287 | 3.0 | 7.0 | 0.00 | 0.00 | 0.00 | 41 | |
| 20260507175538 | 56 | 258 | 8.0 | 10.0 | 0.00 | 0.00 | 0.00 | 40 | |
| 20260507175037 | 56 | 302 | 3.0 | 8.0 | 0.00 | 0.00 | 0.00 | 42 | |
| 20260507174533 | 55 | 281 | 4.0 | 8.0 | 0.00 | 0.00 | 0.00 | 42 | |
| 20260507174031 | 55 | 337 | 5.0 | 9.0 | 0.00 | 0.00 | 0.00 | 42 | |
| 20260507173527 | 56 | 278 | 2.0 | 9.0 | 0.00 | 0.00 | 0.00 | 42 | |
| 20260507173025 | 56 | 278 | 3.0 | 7.0 | 0.00 | 0.00 | 0.00 | 43 | |
| 20260507172520 | 56 | 313 | 4.0 | 6.0 | 0.00 | 0.00 | 0.00 | 41 | |
| 20260507172017 | 56 | 261 | 2.0 | 5.0 | 0.00 | 0.00 | 0.00 | 42 | |
| 20260507171513 | 57 | 333 | 3.0 | 6.0 | 0.00 | 0.00 | 0.00 | 41 | |
| 20260507171011 | 57 | 288 | 3.0 | 8.0 | 0.00 | 0.00 | 0.00 | 42 | |
| 20260507170507 | 58 | 257 | 2.0 | 6.0 | 0.00 | 0.00 | 0.00 | 41 | |
| 20260507170004 | 55 | 259 | 1.0 | 6.0 | 0.00 | 0.00 | 0.00 | 44 | |
| 20260507165459 | 57 | 279 | 2.0 | 6.0 | 0.00 | 0.00 | 0.00 | 42 | |
| 20260507164955 | 56 | 277 | 2.0 | 6.0 | 0.00 | 0.00 | 0.00 | 41 | |
| 20260507164452 | 56 | 257 | 1.0 | 6.0 | 0.00 | 0.00 | 0.00 | 43 | |
| 20260507163949 | 56 | 250 | 2.0 | 3.0 | 0.00 | 0.00 | 0.00 | 42 | |
| 20260507163447 | 57 | 255 | 3.0 | 8.0 | 0.00 | 0.00 | 0.00 | 42 | |
| 20260507162944 | 57 | 318 | 2.0 | 3.0 | 0.00 | 0.00 | 0.00 | 41 | |
| 20260507162439 | 55 | 326 | 2.0 | 5.0 | 0.00 | 0.00 | 0.00 | 43 | |
| 20260507161936 | 56 | 343 | 3.0 | 7.0 | 0.00 | 0.00 | 0.00 | 42 | |
| 20260507161432 | 57 | 259 | 7.0 | 9.0 | 0.00 | 0.00 | 0.00 | 42 | |
| 20260507160929 | 59 | 301 | 4.0 | 6.0 | 0.00 | 0.00 | 0.00 | 38 | |
| 20260507160425 | 59 | 278 | 4.0 | 10.0 | 0.00 | 0.00 | 0.00 | 40 | |
| 20260507155921 | 60 | 225 | 3.0 | 9.0 | 0.00 | 0.00 | 0.00 | 37 | |
| 20260507155417 | 58 | 254 | 3.0 | 5.0 | 0.00 | 0.00 | 0.00 | 40 | |
| 20260507154915 | 59 | 250 | 1.0 | 6.0 | 0.00 | 0.00 | 0.00 | 39 | |
| 20260507154411 | 59 | 245 | 2.0 | 6.0 | 0.00 | 0.00 | 0.00 | 38 | |
| 20260507153909 | 57 | 272 | 3.0 | 7.0 | 0.00 | 0.00 | 0.00 | 43 | |
| 20260507153405 | 59 | 316 | 4.0 | 6.0 | 0.00 | 0.00 | 0.00 | 41 | |
| 20260507152902 | 58 | 315 | 1.0 | 6.0 | 0.00 | 0.00 | 0.00 | 41 | |
| 20260507152358 | 58 | 237 | 3.0 | 6.0 | 0.00 | 0.00 | 0.00 | 40 | |
| 20260507151854 | 58 | 275 | 3.0 | 7.0 | 0.00 | 0.00 | 0.00 | 39 | |
| 20260507151350 | 58 | 345 | 3.0 | 6.0 | 0.00 | 0.00 | 0.00 | 40 | |
| 20260507150847 | 57 | 246 | 1.0 | 7.0 | 0.00 | 0.00 | 0.00 | 42 | |
| 20260507150344 | 57 | 269 | 3.0 | 6.0 | 0.00 | 0.00 | 0.00 | 40 | |
| 20260507145840 | 57 | 242 | 4.0 | 6.0 | 0.00 | 0.00 | 0.00 | 41 | |
| 20260507145337 | 57 | 346 | 4.0 | 7.0 | 0.00 | 0.00 | 0.00 | 41 | |
| 20260507144834 | 57 | 243 | 1.0 | 3.0 | 0.00 | 0.00 | 0.00 | 40 | |
| 20260507144331 | 56 | 222 | 1.0 | 6.0 | 0.00 | 0.00 | 0.00 | 44 | |
| 20260507143827 | 57 | 248 | 3.0 | 5.0 | 0.00 | 0.00 | 0.00 | 39 | |
| 20260507143320 | 56 | 277 | 3.0 | 3.0 | 0.00 | 0.00 | 0.00 | 40 | |
| 20260507142815 | 57 | 245 | 1.0 | 2.0 | 0.00 | 0.00 | 0.00 | 41 | |
| 20260507142312 | 57 | 274 | 3.0 | 6.0 | 0.00 | 0.00 | 0.00 | 39 | |
| 20260507141809 | 57 | 222 | 1.0 | 1.0 | 0.00 | 0.00 | 0.00 | 42 | |
| 20260507141306 | 56 | 244 | 1.0 | 5.0 | 0.00 | 0.00 | 0.00 | 42 | |
| 20260507140802 | 56 | 281 | 3.0 | 3.0 | 0.00 | 0.00 | 0.00 | 45 | |
| 20260507140259 | 55 | 262 | 0.0 | 2.0 | 0.00 | 0.00 | 0.00 | 44 | |
| 20260507135756 | 53 | 294 | 1.0 | 6.0 | 0.00 | 0.00 | 0.00 | 49 | |
| 20260507135253 | 56 | 6 | 3.0 | 3.0 | 0.00 | 0.00 | 0.00 | 44 | |
| 20260507134750 | 55 | 239 | 0.0 | 2.0 | 0.00 | 0.00 | 0.00 | 43 | |
| 20260507134247 | 55 | 192 | 2.0 | 3.0 | 0.00 | 0.00 | 0.00 | 45 | |
| 20260507133742 | 54 | 244 | 1.0 | 2.0 | 0.00 | 0.00 | 0.00 | 45 | |
| 20260507133239 | 53 | 261 | 2.0 | 3.0 | 0.00 | 0.00 | 0.00 | 46 | |
| 20260507132737 | 54 | 231 | 1.0 | 3.0 | 0.00 | 0.00 | 0.00 | 45 | |
| 20260507132233 | 54 | 246 | 1.0 | 2.0 | 0.00 | 0.00 | 0.00 | 46 | |
| 20260507131730 | 54 | 226 | 1.0 | 2.0 | 0.00 | 0.00 | 0.00 | 44 | |
| 20260507131227 | 52 | 233 | 1.0 | 2.0 | 0.00 | 0.00 | 0.00 | 48 | |
| 20260507130724 | 53 | 272 | 1.0 | 1.0 | 0.00 | 0.00 | 0.00 | 48 | |
| 20260507130222 | 53 | 285 | 2.0 | 5.0 | 0.00 | 0.00 | 0.00 | 47 | |
| 20260507125720 | 52 | 152 | 0.0 | 2.0 | 0.00 | 0.00 | 0.00 | 48 | |
| 20260507125217 | 52 | 248 | 1.0 | 5.0 | 0.00 | 0.00 | 0.00 | 49 | |
| 20260507124714 | 53 | 268 | 0.0 | 2.0 | 0.00 | 0.00 | 0.00 | 49 | |
| 20260507124211 | 52 | 236 | 0.0 | 2.0 | 0.00 | 0.00 | 0.00 | 51 | |
| 20260507123709 | 51 | 237 | 1.0 | 2.0 | 0.00 | 0.00 | 0.00 | 54 | |
| 20260507123206 | 50 | 247 | 1.0 | 2.0 | 0.00 | 0.00 | 0.00 | 56 | |
| 20260507122701 | 50 | 235 | 1.0 | 1.0 | 0.00 | 0.00 | 0.00 | 56 | |
| 20260507122157 | 49 | 261 | 0.0 | 2.0 | 0.00 | 0.00 | 0.00 | 57 | |
| 20260507121653 | 49 | 238 | 0.0 | 2.0 | 0.00 | 0.00 | 0.00 | 59 | |
| 20260507121149 | 48 | 248 | 1.0 | 2.0 | 0.00 | 0.00 | 0.00 | 60 | |
| 20260507120646 | 48 | 263 | 1.0 | 2.0 | 0.00 | 0.00 | 0.00 | 60 | |
| 20260507120142 | 47 | 317 | 1.0 | 2.0 | 0.00 | 0.00 | 0.00 | 61 | |
| 20260507115639 | 47 | 241 | 1.0 | 1.0 | 0.00 | 0.00 | 0.00 | 62 | |
| 20260507115134 | 46 | 239 | 0.0 | 1.0 | 0.00 | 0.00 | 0.00 | 65 | |
| 20260507114630 | 44 | 252 | 0.0 | 1.0 | 0.00 | 0.00 | 0.00 | 67 | |
| 20260507114128 | 43 | 265 | 1.0 | 1.0 | 0.00 | 0.00 | 0.00 | 69 | |
| 20260507113626 | 43 | 263 | 0.0 | 1.0 | 0.00 | 0.00 | 0.00 | 71 | |
| 20260507113122 | 42 | 264 | 0.0 | 0.0 | 0.00 | 0.00 | 0.00 | 72 | |
| 20260507112620 | 42 | 252 | 0.0 | 0.0 | 0.00 | 0.00 | 0.00 | 73 | |
| 20260507112116 | 42 | 239 | 0.0 | 0.0 | 0.00 | 0.00 | 0.00 | 73 | |
| 20260507111614 | 42 | 238 | 0.0 | 0.0 | 0.00 | 0.00 | 0.00 | 73 | |
| 20260507111110 | 42 | 238 | 0.0 | 0.0 | 0.00 | 0.00 | 0.00 | 73 | |
| 20260507110607 | 41 | 236 | 0.0 | 0.0 | 0.00 | 0.00 | 0.00 | 73 | |
| 20260507110103 | 41 | 235 | 0.0 | 0.0 | 0.00 | 0.00 | 0.00 | 73 | |
| 20260507105600 | 41 | 236 | 0.0 | 0.0 | 0.00 | 0.00 | 0.00 | 74 | |
| 20260507105056 | 41 | 236 | 0.0 | 0.0 | 0.00 | 0.00 | 0.00 | 74 | |
| 20260507104554 | 41 | 235 | 0.0 | 0.0 | 0.00 | 0.00 | 0.00 | 74 | |
| 20260507104050 | 41 | 235 | 0.0 | 0.0 | 0.00 | 0.00 | 0.00 | 74 | |
| 20260507103546 | 41 | 235 | 0.0 | 0.0 | 0.00 | 0.00 | 0.00 | 73 | |
| 20260507103043 | 41 | 233 | 0.0 | 1.0 | 0.00 | 0.00 | 0.00 | 73 | |
| 20260507102539 | 41 | 242 | 0.0 | 0.0 | 0.00 | 0.00 | 0.00 | 72 | |
| 20260507102036 | 41 | 250 | 0.0 | 0.0 | 0.00 | 0.00 | 0.00 | 70 | |
| 20260507101531 | 42 | 257 | 0.0 | 0.0 | 0.00 | 0.00 | 0.00 | 69 | |
| 20260507101028 | 42 | 268 | 0.0 | 1.0 | 0.00 | 0.00 | 0.00 | 69 | |
| 20260507100525 | 42 | 270 | 1.0 | 1.0 | 0.00 | 0.00 | 0.00 | 69 | |
| 20260507100023 | 42 | 270 | 0.0 | 1.0 | 0.00 | 0.00 | 0.00 | 68 | |
| 20260507095521 | 42 | 265 | 0.0 | 0.0 | 0.00 | 0.00 | 0.00 | 68 | |
| 20260507095017 | 42 | 255 | 0.0 | 0.0 | 0.00 | 0.00 | 0.00 | 68 | |
| 20260507094514 | 43 | 255 | 0.0 | 0.0 | 0.00 | 0.00 | 0.00 | 67 | |
| 20260507094011 | 43 | 267 | 0.0 | 0.0 | 0.00 | 0.00 | 0.00 | 67 | |
| 20260507093508 | 43 | 259 | 0.0 | 0.0 | 0.00 | 0.00 | 0.00 | 67 | |
| 20260507093007 | 42 | 244 | 0.0 | 0.0 | 0.00 | 0.00 | 0.00 | 66 | |
| 20260507092503 | 43 | 244 | 0.0 | 0.0 | 0.00 | 0.00 | 0.00 | 65 | |
| 20260507092000 | 44 | 242 | 0.0 | 0.0 | 0.00 | 0.00 | 0.00 | 64 | |
| 20260507091456 | 44 | 259 | 0.0 | 0.0 | 0.00 | 0.00 | 0.00 | 63 | |
| 20260507090952 | 44 | 261 | 0.0 | 0.0 | 0.00 | 0.00 | 0.00 | 62 | |
| 20260507090448 | 45 | 264 | 0.0 | 1.0 | 0.00 | 0.00 | 0.00 | 62 | |
| 20260507085945 | 45 | 256 | 0.0 | 0.0 | 0.00 | 0.00 | 0.00 | 62 | |
| 20260507085442 | 45 | 259 | 0.0 | 0.0 | 0.00 | 0.00 | 0.00 | 61 | |
| 20260507084939 | 45 | 261 | 0.0 | 0.0 | 0.00 | 0.00 | 0.00 | 61 | |
| 20260507084435 | 46 | 258 | 0.0 | 0.0 | 0.00 | 0.00 | 0.00 | 60 | |
| 20260507083933 | 46 | 254 | 0.0 | 0.0 | 0.00 | 0.00 | 0.00 | 60 | |
| 20260507083429 | 46 | 277 | 1.0 | 1.0 | 0.00 | 0.00 | 0.00 | 59 | |
| 20260507082925 | 46 | 262 | 0.0 | 1.0 | 0.00 | 0.00 | 0.00 | 59 | |
| 20260507082421 | 46 | 260 | 1.0 | 1.0 | 0.00 | 0.00 | 0.00 | 59 | |
| 20260507081918 | 46 | 254 | 1.0 | 1.0 | 0.00 | 0.00 | 0.00 | 59 | |
| 20260507081414 | 46 | 259 | 0.0 | 1.0 | 0.00 | 0.00 | 0.00 | 59 | |
| 20260507080911 | 46 | 289 | 0.0 | 2.0 | 0.00 | 0.00 | 0.00 | 59 | |
| 20260507080408 | 46 | 253 | 0.0 | 1.0 | 0.00 | 0.00 | 0.00 | 59 | |
| 20260507075903 | 46 | 263 | 0.0 | 1.0 | 0.00 | 0.00 | 0.00 | 59 | |
| 20260507075359 | 46 | 254 | 0.0 | 1.0 | 0.00 | 0.00 | 0.00 | 59 | |
| 20260507074856 | 46 | 252 | 0.0 | 1.0 | 0.00 | 0.00 | 0.00 | 59 | |
| 20260507074353 | 46 | 264 | 0.0 | 1.0 | 0.00 | 0.00 | 0.00 | 59 | |
| 20260507073850 | 46 | 254 | 0.0 | 1.0 | 0.00 | 0.00 | 0.00 | 59 | |
| 20260507073347 | 46 | 277 | 0.0 | 1.0 | 0.00 | 0.00 | 0.00 | 59 | |
| 20260507072844 | 46 | 258 | 0.0 | 1.0 | 0.00 | 0.00 | 0.00 | 59 | |
| 20260507072341 | 46 | 272 | 0.0 | 0.0 | 0.00 | 0.00 | 0.00 | 59 | |
| 20260507071839 | 46 | 288 | 0.0 | 1.0 | 0.00 | 0.00 | 0.00 | 59 | |
| 20260507071336 | 47 | 259 | 0.0 | 1.0 | 0.00 | 0.00 | 0.00 | 59 | |
| 20260507070832 | 47 | 256 | 0.0 | 1.0 | 0.00 | 0.00 | 0.00 | 58 | |
| 20260507070329 | 47 | 260 | 0.0 | 1.0 | 0.00 | 0.00 | 0.00 | 59 | |
| 20260507065826 | 47 | 300 | 1.0 | 2.0 | 0.00 | 0.00 | 0.00 | 59 | |
| 20260507065323 | 47 | 263 | 0.0 | 1.0 | 0.00 | 0.00 | 0.00 | 60 | |
| 20260507064820 | 47 | 265 | 0.0 | 1.0 | 0.00 | 0.00 | 0.00 | 60 | |
| 20260507064318 | 47 | 266 | 0.0 | 2.0 | 0.00 | 0.00 | 0.00 | 61 | |
| 20260507063816 | 47 | 270 | 0.0 | 1.0 | 0.00 | 0.00 | 0.00 | 61 | |
| 20260507063313 | 47 | 256 | 0.0 | 0.0 | 0.00 | 0.00 | 0.00 | 61 | |
| 20260507062809 | 47 | 253 | 0.0 | 1.0 | 0.00 | 0.00 | 0.00 | 61 | |
| 20260507062307 | 46 | 262 | 1.0 | 1.0 | 0.00 | 0.00 | 0.00 | 61 | |
| 20260507061805 | 47 | 258 | 0.0 | 1.0 | 0.00 | 0.00 | 0.00 | 61 | |
| 20260507061302 | 47 | 254 | 0.0 | 0.0 | 0.00 | 0.00 | 0.00 | 60 | |
| 20260507060800 | 47 | 255 | 0.0 | 0.0 | 0.00 | 0.00 | 0.00 | 61 | |
| 20260507060256 | 47 | 247 | 0.0 | 0.0 | 0.00 | 0.00 | 0.00 | 61 | |
| 20260507055753 | 47 | 246 | 0.0 | 0.0 | 0.00 | 0.00 | 0.00 | 60 | |
| 20260507055248 | 47 | 242 | 0.0 | 0.0 | 0.00 | 0.00 | 0.00 | 59 | |
| 20260507054745 | 47 | 242 | 0.0 | 0.0 | 0.00 | 0.00 | 0.00 | 58 | |
| 20260507054242 | 48 | 242 | 0.0 | 0.0 | 0.00 | 0.00 | 0.00 | 57 | |
| 20260507053739 | 48 | 244 | 0.0 | 0.0 | 0.00 | 0.00 | 0.00 | 56 | |
| 20260507053236 | 48 | 244 | 0.0 | 0.0 | 0.00 | 0.00 | 0.00 | 57 | |
| 20260507052735 | 48 | 255 | 0.0 | 0.0 | 0.00 | 0.00 | 0.00 | 56 | |
| 20260507052231 | 48 | 259 | 0.0 | 0.0 | 0.00 | 0.00 | 0.00 | 56 | |
| 20260507051730 | 48 | 239 | 0.0 | 0.0 | 0.00 | 0.00 | 0.00 | 54 | |
| 20260507051226 | 49 | 239 | 0.0 | 0.0 | 0.00 | 0.00 | 0.00 | 54 | |
| 20260507050723 | 49 | 239 | 0.0 | 0.0 | 0.00 | 0.00 | 0.00 | 54 | |
| 20260507050220 | 49 | 238 | 0.0 | 0.0 | 0.00 | 0.00 | 0.00 | 53 |